• în Republica Moldova
  • Lista ţărilor
  • Pe 7 zile
  • Temperatura apei
  • Hartă satelitară
  • Meteo pe hartă
  • Widget-uri
  • user-avatar
    Intrare

    Meteo pe oră la Mishukovo

    Astăzi, 21 Iulie, Sâmbătă

    Timp Temperatura Precipitaţii Vânt Presiune Umiditate
    00:00 +19°C° 0 mm 1 m/s 731 mmHg 98%
    01:00 +19°C° 0 mm 1 m/s 731 mmHg 98%
    02:00 +19°C° 0 mm 1 m/s 731 mmHg 98%
    03:00 +19°C° 0,1 mm 1 m/s 732 mmHg 98%
    04:00 +19°C° 0,1 mm 1 m/s 732 mmHg 98%
    05:00 +20°C° 0,1 mm 1 m/s 732 mmHg 98%
    06:00 +21°C° 0 mm 1 m/s 732 mmHg 95%
    07:00 +22°C° 0 mm 1 m/s 732 mmHg 93%
    08:00 +23°C° 0 mm 1 m/s 733 mmHg 90%
    09:00 +25°C° 0,5 mm 2 m/s 733 mmHg 84%
    10:00 +26°C° 0,5 mm 2 m/s 733 mmHg 78%
    11:00 +27°C° 0,5 mm 2 m/s 733 mmHg 73%
    12:00 +27°C° 0,9 mm 2 m/s 733 mmHg 74%
    13:00 +27°C° 0,9 mm 3 m/s 733 mmHg 76%
    14:00 +27°C° 0,9 mm 3 m/s 733 mmHg 77%
    15:00 +26°C° 0,1 mm 3 m/s 733 mmHg 77%
    16:00 +26°C° 0,1 mm 3 m/s 733 mmHg 77%
    17:00 +26°C° 0,1 mm 2 m/s 733 mmHg 76%
    18:00 +25°C° 0,2 mm 2 m/s 733 mmHg 81%
    19:00 +24°C° 0,2 mm 2 m/s 733 mmHg 86%
    20:00 +22°C° 0,2 mm 1 m/s 733 mmHg 91%
    21:00 +22°C° 0,2 mm 1 m/s 733 mmHg 93%
    22:00 +21°C° 0,2 mm 1 m/s 733 mmHg 95%
    23:00 +21°C° 0,2 mm 1 m/s 733 mmHg 96%

    Mâine, 22 Iulie, Duminică

    Timp Temperatura Precipitaţii Vânt Presiune Umiditate
    00:00 +20°C° 0,1 mm 1 m/s 733 mmHg 96%
    01:00 +20°C° 0,1 mm 1 m/s 733 mmHg 97%
    02:00 +19°C° 0,1 mm 2 m/s 734 mmHg 97%
    03:00 +19°C° 0,6 mm 2 m/s 734 mmHg 97%
    04:00 +19°C° 0,6 mm 2 m/s 734 mmHg 97%
    05:00 +19°C° 0,6 mm 2 m/s 734 mmHg 98%
    06:00 +20°C° 0,3 mm 2 m/s 734 mmHg 96%
    07:00 +20°C° 0,3 mm 3 m/s 734 mmHg 95%
    08:00 +21°C° 0,3 mm 3 m/s 734 mmHg 94%
    09:00 +21°C° 0,1 mm 3 m/s 734 mmHg 92%
    10:00 +21°C° 0,1 mm 3 m/s 735 mmHg 91%
    11:00 +21°C° 0,1 mm 3 m/s 735 mmHg 90%
    12:00 +21°C° 0,1 mm 3 m/s 735 mmHg 89%
    13:00 +21°C° 0,1 mm 3 m/s 735 mmHg 88%
    14:00 +21°C° 0,1 mm 3 m/s 735 mmHg 87%
    15:00 +21°C° 0 mm 3 m/s 735 mmHg 87%
    16:00 +21°C° 0 mm 3 m/s 735 mmHg 87%
    17:00 +21°C° 0 mm 3 m/s 735 mmHg 87%
    18:00 +21°C° 0 mm 3 m/s 735 mmHg 89%
    19:00 +20°C° 0 mm 3 m/s 735 mmHg 90%
    20:00 +20°C° 0 mm 2 m/s 735 mmHg 92%
    21:00 +19°C° 0 mm 2 m/s 735 mmHg 93%
    22:00 +19°C° 0 mm 2 m/s 735 mmHg 93%
    23:00 +19°C° 0 mm 2 m/s 735 mmHg 94%

    Poimâine, 23 Iulie, Luni

    Timp Temperatura Precipitaţii Vânt Presiune Umiditate
    00:00 +19°C° 0 mm 2 m/s 735 mmHg 95%
    01:00 +18°C° 0 mm 2 m/s 736 mmHg 95%
    02:00 +18°C° 0 mm 2 m/s 736 mmHg 96%
    03:00 +18°C° 0 mm 2 m/s 736 mmHg 96%
    04:00 +17°C° 0 mm 2 m/s 736 mmHg 96%
    05:00 +17°C° 0 mm 3 m/s 736 mmHg 97%
    06:00 +18°C° 0 mm 3 m/s 736 mmHg 93%
    07:00 +18°C° 0 mm 3 m/s 736 mmHg 90%
    08:00 +19°C° 0 mm 3 m/s 736 mmHg 87%
    09:00 +19°C° 0 mm 3 m/s 736 mmHg 86%
    10:00 +20°C° 0 mm 3 m/s 736 mmHg 85%
    11:00 +20°C° 0 mm 3 m/s 736 mmHg 84%
    12:00 +20°C° 0,1 mm 3 m/s 736 mmHg 82%
    13:00 +21°C° 0,1 mm 3 m/s 736 mmHg 80%
    14:00 +21°C° 0,1 mm 3 m/s 736 mmHg 78%
    15:00 +21°C° 0,2 mm 3 m/s 736 mmHg 79%
    16:00 +21°C° 0,2 mm 3 m/s 736 mmHg 80%
    17:00 +21°C° 0,2 mm 3 m/s 736 mmHg 81%
    18:00 +20°C° 0,1 mm 3 m/s 736 mmHg 85%
    19:00 +19°C° 0,1 mm 2 m/s 736 mmHg 89%
    20:00 +18°C° 0,1 mm 2 m/s 737 mmHg 93%
    21:00 +18°C° 0 mm 2 m/s 737 mmHg 95%
    22:00 +17°C° 0 mm 2 m/s 737 mmHg 96%
    23:00 +17°C° 0 mm 2 m/s 737 mmHg 97%

    24 Iulie, Marţi

    Timp Temperatura Precipitaţii Vânt Presiune Umiditate
    00:00 +16°C° 0 mm 2 m/s 736 mmHg 97%
    01:00 +16°C° 0 mm 2 m/s 736 mmHg 97%
    02:00 +16°C° 0 mm 2 m/s 736 mmHg 98%
    03:00 +16°C° 0 mm 3 m/s 736 mmHg 97%
    04:00 +16°C° 0 mm 3 m/s 736 mmHg 97%
    05:00 +16°C° 0 mm 3 m/s 736 mmHg 96%
    06:00 +16°C° 0,1 mm 3 m/s 736 mmHg 96%
    07:00 +16°C° 0,1 mm 3 m/s 736 mmHg 96%
    08:00 +16°C° 0,1 mm 3 m/s 737 mmHg 96%
    09:00 +17°C° 0,3 mm 3 m/s 737 mmHg 95%
    10:00 +18°C° 0,3 mm 3 m/s 737 mmHg 94%
    11:00 +18°C° 0,3 mm 3 m/s 737 mmHg 93%
    12:00 +19°C° 0,5 mm 3 m/s 737 mmHg 94%
    13:00 +19°C° 0,5 mm 3 m/s 737 mmHg 94%
    14:00 +19°C° 0,5 mm 3 m/s 737 mmHg 95%
    15:00 +19°C° 0,3 mm 3 m/s 737 mmHg 94%
    16:00 +19°C° 0,3 mm 3 m/s 737 mmHg 93%
    17:00 +20°C° 0,3 mm 3 m/s 737 mmHg 92%
    18:00 +19°C° 0,1 mm 2 m/s 737 mmHg 94%
    19:00 +19°C° 0,1 mm 2 m/s 737 mmHg 96%
    20:00 +18°C° 0,1 mm 2 m/s 737 mmHg 98%
    21:00 +18°C° 0,2 mm 2 m/s 737 mmHg 98%
    22:00 +18°C° 0,2 mm 2 m/s 737 mmHg 98%
    23:00 +18°C° 0,2 mm 2 m/s 737 mmHg 99%

    25 Iulie, Miercuri

    Timp Temperatura Precipitaţii Vânt Presiune Umiditate
    00:00 +18°C° 0,3 mm 2 m/s 738 mmHg 99%
    01:00 +18°C° 0,3 mm 2 m/s 738 mmHg 99%
    02:00 +18°C° 0,3 mm 2 m/s 738 mmHg 99%
    03:00 +19°C° 0,1 mm 2 m/s 738 mmHg 98%
    04:00 +19°C° 0,1 mm 3 m/s 738 mmHg 98%
    05:00 +19°C° 0,1 mm 3 m/s 739 mmHg 98%
    06:00 +20°C° 0,2 mm 3 m/s 739 mmHg 97%
    07:00 +20°C° 0,2 mm 3 m/s 739 mmHg 95%
    08:00 +20°C° 0,2 mm 3 m/s 740 mmHg 94%
    09:00 +21°C° 0,1 mm 3 m/s 740 mmHg 90%
    10:00 +21°C° 0,1 mm 3 m/s 740 mmHg 85%
    11:00 +22°C° 0,1 mm 3 m/s 740 mmHg 80%
    12:00 +23°C° 0 mm 4 m/s 740 mmHg 74%
    13:00 +25°C° 0 mm 4 m/s 740 mmHg 69%
    14:00 +26°C° 0 mm 4 m/s 740 mmHg 63%
    15:00 +26°C° 0 mm 4 m/s 740 mmHg 64%
    16:00 +26°C° 0 mm 4 m/s 740 mmHg 65%
    17:00 +26°C° 0 mm 3 m/s 740 mmHg 66%
    18:00 +25°C° 0 mm 3 m/s 740 mmHg 70%
    19:00 +22°C° 0 mm 3 m/s 741 mmHg 74%
    20:00 +20°C° 0 mm 3 m/s 741 mmHg 79%
    21:00 +20°C° 0 mm 3 m/s 741 mmHg 78%
    22:00 +19°C° 0 mm 3 m/s 741 mmHg 78%
    23:00 +18°C° 0 mm 3 m/s 741 mmHg 77%

    26 Iulie, Joi

    Timp Temperatura Precipitaţii Vânt Presiune Umiditate
    00:00 +18°C° 0 mm 3 m/s 741 mmHg 79%
    01:00 +17°C° 0 mm 3 m/s 741 mmHg 80%
    02:00 +17°C° 0 mm 3 m/s 741 mmHg 82%
    03:00 +17°C° 0 mm 3 m/s 742 mmHg 82%
    04:00 +17°C° 0 mm 3 m/s 742 mmHg 82%
    05:00 +17°C° 0 mm 3 m/s 742 mmHg 83%
    06:00 +19°C° 0 mm 3 m/s 742 mmHg 78%
    07:00 +21°C° 0 mm 3 m/s 743 mmHg 73%
    08:00 +22°C° 0 mm 4 m/s 743 mmHg 68%
    09:00 +25°C° 0 mm 4 m/s 743 mmHg 64%
    10:00 +26°C° 0 mm 4 m/s 743 mmHg 59%
    11:00 +27°C° 0 mm 5 m/s 743 mmHg 55%
    12:00 +28°C° 0 mm 5 m/s 743 mmHg 53%
    13:00 +28°C° 0 mm 5 m/s 743 mmHg 51%
    14:00 +29°C° 0 mm 5 m/s 743 mmHg 49%
    15:00 +28°C° 0 mm 4 m/s 743 mmHg 52%
    16:00 +28°C° 0 mm 4 m/s 743 mmHg 55%
    17:00 +28°C° 0 mm 3 m/s 743 mmHg 59%
    18:00 +26°C° 0 mm 3 m/s 743 mmHg 66%
    19:00 +24°C° 0 mm 2 m/s 743 mmHg 74%
    20:00 +21°C° 0 mm 2 m/s 743 mmHg 82%
    21:00 +21°C° 0 mm 2 m/s 743 mmHg 85%
    22:00 +20°C° 0 mm 2 m/s 744 mmHg 88%
    23:00 +19°C° 0 mm 2 m/s 744 mmHg 90%
    Arată mai mult